User: anonymous   Login
Location: Ostrava
(49.8330°N, 18.2830°E)
Time: 20:44:35
(UTC+01:00)
Language:

Explorer 7 - Orbit

View from above orbital plane
View from above orbital plane
View from above satellite
View from above satellite

Ground track
Ground track

The orbit data is extracted from the following two-line orbital elements,

1    22U 59009A   18022.88273573 +.00000151 +00000-0 +34902-4 0  9992
2    22 050.2833 252.8030 0141288 151.3426 209.5378 14.94418229339253
Epoch (UTC): 22 January 2018 21:11:08
Eccentricity: 0.0141288
inclination: 50.2833°
perigee height: 486 km
apogee height: 682 km
right ascension of ascending node: 252.8030°
argument of perigee: 151.3426°
revolutions per day: 14.94418229
mean anomaly at epoch: 209.5378°
orbit number at epoch: 33925

The dashed part of the orbit path shows where the satellite is in the earth's shadow,  

DLR